ITY2223 LROP-LOWW

Flight info

Callsign ITY2223
Flight time 1h 35m
Altitude 38000
Route DCT BALUX DCT TORNO DCT NATEX NATEX2W
Aircraft A20N/M-SDE2E3FGHIRWXY/LB1

Departure

Time 2026-05-04 19:35
Airport Bucharest Henri Coandă International Airport (LROP)

Arrival

Time 2026-05-04 21:10
Airport Vienna International Airport (LOWW)
Time Latitude Longitude Altitude Speed Heading
2026-05-04 18:58 44.56865 26.08810 314 ft 0 kts 174°
2026-05-04 19:24 44.56864 26.08810 313 ft 2 kts 174°
2026-05-04 19:24 44.56906 26.08804 313 ft 8 kts 174°
2026-05-04 19:24 44.56910 26.08804 313 ft 0 kts 174°
2026-05-04 19:25 44.56920 26.08802 314 ft 0 kts 174°
2026-05-04 19:25 44.56937 26.08810 315 ft 2 kts 243°
2026-05-04 19:26 44.56940 26.08816 314 ft 0 kts 262°
2026-05-04 19:31 44.56937 26.08800 313 ft 6 kts 258°
2026-05-04 19:31 44.56931 26.08744 314 ft 4 kts 263°
2026-05-04 19:31 44.56924 26.08642 314 ft 15 kts 266°
2026-05-04 19:32 44.56960 26.08546 314 ft 6 kts 345°
2026-05-04 19:32 44.57050 26.08530 315 ft 19 kts 354°
2026-05-04 19:32 44.57189 26.08510 316 ft 25 kts 354°
2026-05-04 19:32 44.57342 26.08489 319 ft 10 kts 354°
2026-05-04 19:33 44.57456 26.08471 320 ft 22 kts 354°
2026-05-04 19:33 44.57601 26.08449 320 ft 0 kts 355°
2026-05-04 19:33 44.57646 26.08459 322 ft 13 kts 27°
2026-05-04 19:33 44.57669 26.08519 322 ft 0 kts 80°
2026-05-04 19:34 44.57670 26.08525 322 ft 10 kts 80°
2026-05-04 19:34 44.57703 26.08976 318 ft 80 kts 83°
2026-05-04 19:34 44.57784 26.10043 319 ft 138 kts 84°
2026-05-04 19:34 44.57900 26.11590 361 ft 176 kts 84°
2026-05-04 19:35 44.58017 26.13458 563 ft 204 kts 86°
2026-05-04 19:35 44.58098 26.15514 1073 ft 215 kts 88°
2026-05-04 19:35 44.58157 26.17627 1801 ft 219 kts 87°
2026-05-04 19:35 44.58254 26.19771 2572 ft 220 kts 85°
2026-05-04 19:36 44.58390 26.21911 3377 ft 221 kts 84°
2026-05-04 19:36 44.58663 26.24054 4042 ft 228 kts 65°
2026-05-04 19:36 44.59628 26.25845 4574 ft 235 kts 33°
2026-05-04 19:36 44.61123 26.26682 5229 ft 233 kts
2026-05-04 19:37 44.62679 26.26322 5964 ft 227 kts 330°
2026-05-04 19:37 44.63890 26.24944 6696 ft 223 kts 307°
2026-05-04 19:37 44.64683 26.23103 7477 ft 219 kts 293°
2026-05-04 19:37 44.65243 26.21156 8233 ft 217 kts 288°
2026-05-04 19:38 44.65687 26.19100 8848 ft 222 kts 286°
2026-05-04 19:38 44.66162 26.16976 9295 ft 236 kts 287°
2026-05-04 19:38 44.66625 26.14609 9388 ft 264 kts 276°
2026-05-04 19:38 44.66697 26.11983 9472 ft 278 kts 269°
2026-05-04 19:39 44.66680 26.09274 9544 ft 277 kts 270°
2026-05-04 19:39 44.66741 26.06560 9615 ft 278 kts 273°
2026-05-04 19:39 44.66892 26.03836 9801 ft 281 kts 275°
2026-05-04 19:39 44.67104 26.01089 10356 ft 288 kts 276°
2026-05-04 19:40 44.67354 25.98192 10585 ft 309 kts 277°
2026-05-04 19:40 44.67633 25.95097 10859 ft 327 kts 277°
2026-05-04 19:40 44.67921 25.91905 11493 ft 331 kts 277°
2026-05-04 19:40 44.68211 25.88676 12182 ft 335 kts 277°
2026-05-04 19:41 44.68499 25.85429 12821 ft 338 kts 277°
2026-05-04 19:41 44.68790 25.82125 13476 ft 341 kts 277°
2026-05-04 19:41 44.69082 25.78796 14102 ft 345 kts 277°
2026-05-04 19:41 44.69376 25.75434 14715 ft 348 kts 277°
2026-05-04 19:42 44.69670 25.72051 15315 ft 351 kts 277°
2026-05-04 19:42 44.69968 25.68619 15900 ft 355 kts 277°
2026-05-04 19:42 44.70266 25.65168 16470 ft 358 kts 277°
2026-05-04 19:42 44.70567 25.61678 17025 ft 361 kts 277°
2026-05-04 19:43 44.70868 25.58169 17556 ft 364 kts 276°
2026-05-04 19:43 44.71167 25.54670 18086 ft 367 kts 276°
2026-05-04 19:43 44.71476 25.51044 18614 ft 370 kts 276°
2026-05-04 19:43 44.71777 25.47489 19111 ft 373 kts 276°
2026-05-04 19:44 44.72085 25.43849 19613 ft 376 kts 276°
2026-05-04 19:44 44.72393 25.40185 20092 ft 379 kts 276°
2026-05-04 19:44 44.72704 25.36477 20581 ft 382 kts 276°
2026-05-04 19:44 44.73015 25.32756 21050 ft 384 kts 276°
2026-05-04 19:45 44.73327 25.29007 21506 ft 387 kts 276°
2026-05-04 19:45 44.73640 25.25234 21951 ft 390 kts 276°
2026-05-04 19:45 44.73954 25.21424 22400 ft 393 kts 276°
2026-05-04 19:45 44.74269 25.17594 22815 ft 395 kts 276°
2026-05-04 19:46 44.74584 25.13741 23234 ft 398 kts 276°
2026-05-04 19:46 44.74900 25.09858 23641 ft 401 kts 276°
2026-05-04 19:46 44.75215 25.05984 24039 ft 403 kts 276°
2026-05-04 19:46 44.75533 25.02047 24427 ft 406 kts 276°
2026-05-04 19:47 44.75852 24.98084 24810 ft 408 kts 276°
2026-05-04 19:47 44.76168 24.94134 25174 ft 411 kts 276°
2026-05-04 19:47 44.76380 24.91472 25414 ft 413 kts 276°
2026-05-04 19:47 44.76700 24.87442 25766 ft 415 kts 276°
2026-05-04 19:48 44.77020 24.83398 26113 ft 417 kts 276°
2026-05-04 19:48 44.77337 24.79373 26436 ft 419 kts 276°
2026-05-04 19:48 44.77656 24.75302 26755 ft 422 kts 276°
2026-05-04 19:48 44.77977 24.71192 27077 ft 424 kts 276°
2026-05-04 19:49 44.78298 24.67063 27386 ft 426 kts 276°
2026-05-04 19:49 44.78619 24.62897 27671 ft 428 kts 276°
2026-05-04 19:49 44.78940 24.58731 27962 ft 430 kts 276°
2026-05-04 19:49 44.79262 24.54523 28233 ft 432 kts 276°
2026-05-04 19:50 44.79580 24.50346 28499 ft 434 kts 276°
2026-05-04 19:50 44.79892 24.46225 28750 ft 436 kts 276°
2026-05-04 19:50 44.80211 24.42001 29001 ft 437 kts 276°
2026-05-04 19:50 44.80532 24.37729 29263 ft 438 kts 276°
2026-05-04 19:51 44.80851 24.33446 29503 ft 440 kts 276°
2026-05-04 19:51 44.81170 24.29161 29751 ft 441 kts 276°
2026-05-04 19:51 44.81489 24.24848 29987 ft 443 kts 276°
2026-05-04 19:51 44.81805 24.20538 30193 ft 445 kts 276°
2026-05-04 19:52 44.82124 24.16187 30409 ft 447 kts 276°
2026-05-04 19:52 44.82441 24.11825 30637 ft 449 kts 276°
2026-05-04 19:52 44.82755 24.07488 30860 ft 450 kts 276°
2026-05-04 19:52 44.83071 24.03088 31091 ft 452 kts 275°
2026-05-04 19:53 44.83383 23.98739 31383 ft 451 kts 275°
2026-05-04 19:53 44.83696 23.94346 31664 ft 451 kts 275°
2026-05-04 19:53 44.84007 23.89939 31956 ft 450 kts 275°
2026-05-04 19:53 44.84316 23.85554 32230 ft 449 kts 275°
2026-05-04 19:54 44.84621 23.81203 32501 ft 449 kts 275°
2026-05-04 19:54 44.84925 23.76834 32738 ft 449 kts 275°
2026-05-04 19:54 44.85229 23.72449 32974 ft 448 kts 275°
2026-05-04 19:54 44.85529 23.68083 33226 ft 448 kts 275°
2026-05-04 19:55 44.85828 23.63719 33471 ft 447 kts 275°
2026-05-04 19:55 44.86125 23.59363 33674 ft 447 kts 275°
2026-05-04 19:55 44.86420 23.55007 33900 ft 446 kts 275°
2026-05-04 19:55 44.86712 23.50659 34134 ft 445 kts 275°
2026-05-04 19:56 44.87002 23.46328 34319 ft 445 kts 275°
2026-05-04 19:56 44.87292 23.41965 34478 ft 445 kts 275°
2026-05-04 19:56 44.87579 23.37630 34697 ft 444 kts 275°
2026-05-04 19:56 44.87864 23.33298 34890 ft 443 kts 275°
2026-05-04 19:57 44.88146 23.28977 35051 ft 443 kts 275°
2026-05-04 19:57 44.88428 23.24643 35216 ft 443 kts 275°
2026-05-04 19:57 44.88707 23.20324 35387 ft 442 kts 275°
2026-05-04 19:57 44.88984 23.16013 35546 ft 441 kts 275°
2026-05-04 19:58 44.89260 23.11699 35670 ft 442 kts 275°
2026-05-04 19:58 44.89533 23.07394 35791 ft 442 kts 275°
2026-05-04 19:58 44.89805 23.03069 35910 ft 442 kts 275°
2026-05-04 19:59 44.90344 22.94447 35998 ft 441 kts 275°
2026-05-04 19:59 44.90874 22.85863 36000 ft 440 kts 275°
2026-05-04 20:00 44.91388 22.77445 35997 ft 441 kts 275°
2026-05-04 20:00 44.91909 22.68792 36003 ft 443 kts 275°
2026-05-04 20:01 44.92423 22.60142 36002 ft 442 kts 275°
2026-05-04 20:01 44.92931 22.51492 36000 ft 444 kts 275°
2026-05-04 20:02 44.93436 22.42772 35997 ft 442 kts 274°
2026-05-04 20:02 44.93929 22.34157 35997 ft 440 kts 274°
2026-05-04 20:03 44.94415 22.25540 36003 ft 442 kts 274°
2026-05-04 20:03 44.94896 22.16886 35998 ft 444 kts 274°
2026-05-04 20:04 44.95371 22.08239 35998 ft 440 kts 274°
2026-05-04 20:04 44.95838 21.99611 36003 ft 442 kts 274°
2026-05-04 20:05 44.96299 21.90963 36001 ft 443 kts 274°
2026-05-04 20:05 44.96758 21.82244 36002 ft 446 kts 274°
2026-05-04 20:06 44.97208 21.73563 35999 ft 442 kts 274°
2026-05-04 20:06 44.97645 21.64993 35999 ft 439 kts 274°
2026-05-04 20:07 44.98078 21.56413 35998 ft 440 kts 274°
2026-05-04 20:07 44.98510 21.47796 35999 ft 439 kts 274°
2026-05-04 20:08 44.98936 21.39183 36002 ft 439 kts 274°
2026-05-04 20:08 44.99340 21.30564 36001 ft 439 kts 274°
2026-05-04 20:09 44.99739 21.21974 36002 ft 439 kts 274°
2026-05-04 20:09 45.00138 21.13356 36000 ft 439 kts 274°
2026-05-04 20:10 45.00534 21.04777 35998 ft 440 kts 274°
2026-05-04 20:10 45.01643 20.96318 36005 ft 440 kts 287°
2026-05-04 20:11 45.03466 20.88047 35997 ft 440 kts 287°
2026-05-04 20:11 45.05262 20.79852 35997 ft 440 kts 287°
2026-05-04 20:12 45.07061 20.71577 35999 ft 440 kts 287°
2026-05-04 20:12 45.08844 20.63323 36001 ft 440 kts 287°
2026-05-04 20:13 45.10627 20.55036 36001 ft 440 kts 286°
2026-05-04 20:13 45.12402 20.46753 35915 ft 437 kts 286°
2026-05-04 20:13 45.13282 20.42636 35527 ft 436 kts 286°
2026-05-04 20:14 45.14159 20.38525 34911 ft 436 kts 286°
2026-05-04 20:14 45.15034 20.34414 34211 ft 437 kts 286°
2026-05-04 20:14 45.15906 20.30310 33472 ft 439 kts 286°
2026-05-04 20:14 45.16785 20.26162 32724 ft 440 kts 286°
2026-05-04 20:15 45.17668 20.21996 31968 ft 442 kts 286°
2026-05-04 20:15 45.18552 20.17818 31204 ft 443 kts 286°
2026-05-04 20:15 45.19434 20.13639 30452 ft 444 kts 286°
2026-05-04 20:15 45.20316 20.09449 29778 ft 443 kts 286°
2026-05-04 20:16 45.21194 20.05265 29101 ft 441 kts 286°
2026-05-04 20:16 45.22066 20.01101 28432 ft 440 kts 286°
2026-05-04 20:16 45.22934 19.96948 27754 ft 438 kts 286°
2026-05-04 20:16 45.23799 19.92803 27076 ft 437 kts 286°
2026-05-04 20:17 45.24657 19.88682 26411 ft 435 kts 286°
2026-05-04 20:17 45.25499 19.84624 26097 ft 424 kts 286°
2026-05-04 20:17 45.26316 19.80686 26006 ft 410 kts 286°
2026-05-04 20:17 45.27107 19.76858 26001 ft 413 kts 286°
2026-05-04 20:18 45.27922 19.72908 26000 ft 417 kts 286°
2026-05-04 20:18 45.28732 19.68979 26000 ft 416 kts 286°
2026-05-04 20:18 45.29544 19.65032 26000 ft 416 kts 286°
2026-05-04 20:18 45.30350 19.61104 26000 ft 416 kts 286°
2026-05-04 20:19 45.31161 19.57147 26000 ft 416 kts 286°
2026-05-04 20:19 45.31967 19.53205 26000 ft 416 kts 286°
2026-05-04 20:19 45.32766 19.49292 26000 ft 416 kts 286°
2026-05-04 20:19 45.33569 19.45352 26000 ft 416 kts 285°
2026-05-04 20:20 45.34370 19.41411 26000 ft 416 kts 285°
2026-05-04 20:20 45.35176 19.37441 26000 ft 416 kts 285°
2026-05-04 20:20 45.35971 19.33511 26000 ft 416 kts 285°
2026-05-04 20:20 45.36770 19.29556 26001 ft 416 kts 285°
2026-05-04 20:21 45.37567 19.25607 26000 ft 416 kts 285°
2026-05-04 20:21 45.38364 19.21645 26000 ft 416 kts 285°
2026-05-04 20:21 45.39954 19.13728 26000 ft 416 kts 285°
2026-05-04 20:22 45.40745 19.09772 26001 ft 416 kts 285°
2026-05-04 20:22 45.41527 19.05855 26000 ft 416 kts 285°
2026-05-04 20:22 45.42327 19.01841 26000 ft 416 kts 285°
2026-05-04 20:22 45.43114 18.97880 26000 ft 416 kts 285°
2026-05-04 20:23 45.43900 18.93920 26000 ft 416 kts 285°
2026-05-04 20:23 45.44684 18.89960 26000 ft 416 kts 285°
2026-05-04 20:23 45.45468 18.85990 26001 ft 416 kts 285°
2026-05-04 20:23 45.46251 18.82022 26000 ft 416 kts 285°
2026-05-04 20:24 45.47032 18.78055 26000 ft 416 kts 285°
2026-05-04 20:24 45.47808 18.74107 26000 ft 416 kts 285°
2026-05-04 20:24 45.48585 18.70143 26000 ft 416 kts 285°
2026-05-04 20:24 45.49363 18.66168 26000 ft 416 kts 285°
2026-05-04 20:25 45.50133 18.62221 26001 ft 416 kts 285°
2026-05-04 20:25 45.50907 18.58248 26000 ft 416 kts 285°
2026-05-04 20:25 45.51679 18.54280 26000 ft 416 kts 285°
2026-05-04 20:25 45.52450 18.50305 26001 ft 416 kts 285°
2026-05-04 20:26 45.53222 18.46320 26000 ft 416 kts 285°
2026-05-04 20:26 45.53992 18.42338 26000 ft 416 kts 285°
2026-05-04 20:26 45.54499 18.39709 26000 ft 416 kts 285°
2026-05-04 20:26 45.55266 18.35723 26000 ft 416 kts 285°
2026-05-04 20:27 45.56026 18.31770 26000 ft 416 kts 285°
2026-05-04 20:27 45.57036 18.26498 26000 ft 416 kts 285°
2026-05-04 20:27 45.57551 18.23806 26000 ft 416 kts 285°
2026-05-04 20:27 45.58312 18.19824 26000 ft 416 kts 285°
2026-05-04 20:28 45.59071 18.15847 26001 ft 416 kts 285°
2026-05-04 20:28 45.59833 18.11854 26000 ft 416 kts 285°
2026-05-04 20:28 45.60595 18.07869 26000 ft 416 kts 285°
2026-05-04 20:28 45.61369 18.03899 26000 ft 416 kts 285°
2026-05-04 20:29 45.62147 17.99915 26000 ft 416 kts 285°
2026-05-04 20:29 45.62924 17.95932 26000 ft 416 kts 285°
2026-05-04 20:29 45.63699 17.91959 26000 ft 416 kts 285°
2026-05-04 20:29 45.64478 17.87964 26000 ft 416 kts 285°
2026-05-04 20:30 45.65190 17.84306 26001 ft 416 kts 285°
2026-05-04 20:30 45.66171 17.80417 26003 ft 416 kts 297°
2026-05-04 20:30 45.67717 17.76910 25972 ft 418 kts 303°
2026-05-04 20:30 45.69373 17.73486 25712 ft 417 kts 304°
2026-05-04 20:31 45.71005 17.70123 25416 ft 414 kts 304°
2026-05-04 20:31 45.72637 17.66748 25113 ft 411 kts 304°
2026-05-04 20:31 45.74257 17.63383 24815 ft 409 kts 303°
2026-05-04 20:31 45.75860 17.60039 24516 ft 408 kts 303°
2026-05-04 20:32 45.77466 17.56683 24211 ft 406 kts 303°
2026-05-04 20:32 45.79058 17.53349 23913 ft 404 kts 303°
2026-05-04 20:32 45.80631 17.50050 23616 ft 402 kts 303°
2026-05-04 20:32 45.82203 17.46751 23316 ft 400 kts 303°
2026-05-04 20:33 45.83770 17.43456 23013 ft 398 kts 303°
2026-05-04 20:33 45.85328 17.40180 22714 ft 396 kts 303°
2026-05-04 20:33 45.86871 17.36929 22416 ft 394 kts 303°
2026-05-04 20:33 45.88411 17.33682 22111 ft 393 kts 303°
2026-05-04 20:34 45.89940 17.30454 21816 ft 391 kts 303°
2026-05-04 20:34 45.91472 17.27215 21515 ft 389 kts 303°
2026-05-04 20:34 45.92988 17.24007 21215 ft 387 kts 303°
2026-05-04 20:34 45.94473 17.20861 20924 ft 385 kts 303°
2026-05-04 20:35 45.95996 17.17632 20614 ft 384 kts 303°
2026-05-04 20:35 45.97470 17.14500 20318 ft 382 kts 303°
2026-05-04 20:35 45.98954 17.11348 20013 ft 380 kts 303°
2026-05-04 20:35 46.00443 17.08179 19713 ft 378 kts 303°
2026-05-04 20:36 46.01896 17.05083 19419 ft 377 kts 303°
2026-05-04 20:36 46.03360 17.01961 19118 ft 375 kts 303°
2026-05-04 20:36 46.04815 16.98853 18815 ft 373 kts 303°
2026-05-04 20:36 46.06262 16.95760 18517 ft 372 kts 303°
2026-05-04 20:37 46.07700 16.92684 18218 ft 370 kts 303°
2026-05-04 20:37 46.09128 16.89625 17911 ft 368 kts 303°
2026-05-04 20:37 46.10557 16.86559 17616 ft 367 kts 303°
2026-05-04 20:37 46.11979 16.83508 17317 ft 365 kts 303°
2026-05-04 20:38 46.13388 16.80479 17019 ft 363 kts 303°
2026-05-04 20:38 46.14784 16.77476 16717 ft 361 kts 303°
2026-05-04 20:38 46.16153 16.74527 16302 ft 361 kts 303°
2026-05-04 20:38 46.17530 16.71559 16061 ft 355 kts 303°
2026-05-04 20:39 46.18905 16.68591 15853 ft 356 kts 303°
2026-05-04 20:39 46.20285 16.65610 15444 ft 358 kts 303°
2026-05-04 20:39 46.21663 16.62627 15019 ft 354 kts 303°
2026-05-04 20:39 46.23013 16.59706 14596 ft 350 kts 303°
2026-05-04 20:40 46.24358 16.56791 14171 ft 347 kts 303°
2026-05-04 20:40 46.25695 16.53890 13746 ft 346 kts 303°
2026-05-04 20:40 46.27014 16.51025 13323 ft 343 kts 302°
2026-05-04 20:40 46.28324 16.48177 13069 ft 338 kts 302°
2026-05-04 20:41 46.29630 16.45334 13009 ft 342 kts 302°
2026-05-04 20:41 46.30947 16.42465 12998 ft 342 kts 302°
2026-05-04 20:41 46.32261 16.39599 13001 ft 342 kts 302°
2026-05-04 20:41 46.33575 16.36730 13001 ft 342 kts 302°
2026-05-04 20:42 46.34886 16.33864 13000 ft 342 kts 302°
2026-05-04 20:42 46.36195 16.31002 12998 ft 342 kts 302°
2026-05-04 20:42 46.37510 16.28121 13001 ft 342 kts 302°
2026-05-04 20:42 46.38829 16.25254 13000 ft 342 kts 303°
2026-05-04 20:43 46.40380 16.22660 13003 ft 344 kts 321°
2026-05-04 20:43 46.42493 16.21034 12997 ft 347 kts 342°
2026-05-04 20:43 46.44884 16.20467 13001 ft 350 kts 353°
2026-05-04 20:43 46.47309 16.20167 13001 ft 350 kts 354°
2026-05-04 20:44 46.49719 16.19901 12997 ft 349 kts 354°
2026-05-04 20:44 46.52146 16.19616 12999 ft 349 kts 353°
2026-05-04 20:44 46.54571 16.19310 13001 ft 349 kts 353°
2026-05-04 20:44 46.56959 16.18994 13001 ft 349 kts 353°
2026-05-04 20:45 46.59356 16.18668 13001 ft 349 kts 353°
2026-05-04 20:45 46.61776 16.18336 13001 ft 349 kts 353°
2026-05-04 20:45 46.64174 16.18006 13001 ft 349 kts 353°
2026-05-04 20:45 46.66594 16.17673 13001 ft 349 kts 353°
2026-05-04 20:46 46.68998 16.17343 13000 ft 349 kts 353°
2026-05-04 20:46 46.71414 16.17010 12999 ft 349 kts 353°
2026-05-04 20:46 46.73837 16.16676 13000 ft 349 kts 353°
2026-05-04 20:46 46.76258 16.16342 13000 ft 349 kts 353°
2026-05-04 20:47 46.78675 16.16008 13001 ft 350 kts 353°
2026-05-04 20:47 46.81100 16.15673 13000 ft 350 kts 353°
2026-05-04 20:47 46.83516 16.15339 13001 ft 350 kts 353°
2026-05-04 20:47 46.85947 16.15003 13000 ft 350 kts 353°
2026-05-04 20:48 46.88357 16.14669 13001 ft 350 kts 353°
2026-05-04 20:48 46.90782 16.14333 12999 ft 350 kts 353°
2026-05-04 20:48 46.93175 16.14001 13000 ft 349 kts 353°
2026-05-04 20:48 46.95596 16.13665 12999 ft 349 kts 353°
2026-05-04 20:49 46.98021 16.13331 13000 ft 350 kts 353°
2026-05-04 20:49 47.00434 16.12876 12999 ft 349 kts 349°
2026-05-04 20:49 47.02824 16.12282 13001 ft 348 kts 348°
2026-05-04 20:49 47.05217 16.11672 13001 ft 349 kts 348°
2026-05-04 20:50 47.07607 16.11061 13001 ft 349 kts 348°
2026-05-04 20:50 47.09993 16.10453 13001 ft 348 kts 348°
2026-05-04 20:50 47.12389 16.09845 13001 ft 349 kts 348°
2026-05-04 20:50 47.14759 16.09244 13001 ft 348 kts 348°
2026-05-04 20:51 47.17102 16.08650 13001 ft 349 kts 348°
2026-05-04 20:51 47.19496 16.08043 12998 ft 348 kts 348°
2026-05-04 20:51 47.21882 16.07437 13001 ft 349 kts 348°
2026-05-04 20:51 47.24285 16.06827 12998 ft 349 kts 348°
2026-05-04 20:52 47.26680 16.06217 13001 ft 349 kts 348°
2026-05-04 20:52 47.29044 16.05616 12999 ft 349 kts 348°
2026-05-04 20:52 47.31442 16.05005 13001 ft 349 kts 348°
2026-05-04 20:52 47.33825 16.04397 13001 ft 349 kts 348°
2026-05-04 20:53 47.36219 16.03787 13001 ft 350 kts 348°
2026-05-04 20:53 47.38623 16.03208 12995 ft 350 kts 353°
2026-05-04 20:53 47.41058 16.03495 13001 ft 354 kts 14°
2026-05-04 20:53 47.43387 16.04696 13000 ft 355 kts 19°
2026-05-04 20:54 47.45700 16.06001 13000 ft 356 kts 20°
2026-05-04 20:54 47.48008 16.07318 12999 ft 355 kts 19°
2026-05-04 20:54 47.50314 16.08627 12999 ft 356 kts 19°
2026-05-04 20:54 47.52630 16.09931 13001 ft 356 kts 19°
2026-05-04 20:55 47.54937 16.11222 12997 ft 355 kts 19°
2026-05-04 20:55 47.57246 16.12513 12952 ft 356 kts 19°
2026-05-04 20:55 47.59556 16.13803 12629 ft 357 kts 19°
2026-05-04 20:55 47.61866 16.15096 12182 ft 355 kts 19°
2026-05-04 20:56 47.64172 16.16387 11714 ft 352 kts 19°
2026-05-04 20:56 47.66440 16.17659 11282 ft 349 kts 19°
2026-05-04 20:56 47.68698 16.18926 10830 ft 345 kts 19°
2026-05-04 20:56 47.70934 16.20181 10384 ft 342 kts 19°
2026-05-04 20:57 47.73126 16.21413 9931 ft 339 kts 19°
2026-05-04 20:57 47.75362 16.22670 9478 ft 336 kts 19°
2026-05-04 20:57 47.77513 16.23881 9035 ft 334 kts 19°
2026-05-04 20:57 47.79701 16.25110 8567 ft 331 kts 19°
2026-05-04 20:58 47.81848 16.26319 8170 ft 327 kts 19°
2026-05-04 20:58 47.83866 16.27457 8101 ft 311 kts 19°
2026-05-04 20:58 47.85752 16.28573 8327 ft 267 kts 22°
2026-05-04 20:58 47.87261 16.29749 8495 ft 234 kts 31°
2026-05-04 20:59 47.88485 16.31316 8618 ft 233 kts 46°
2026-05-04 20:59 47.89538 16.33161 8744 ft 233 kts 49°
2026-05-04 20:59 47.90537 16.35072 8816 ft 236 kts 54°
2026-05-04 20:59 47.91191 16.36365 8862 ft 236 kts 48°
2026-05-04 21:00 47.92483 16.38995 8977 ft 237 kts 55°
2026-05-04 21:00 47.93393 16.41044 9058 ft 238 kts 55°
2026-05-04 21:00 47.94302 16.43092 9136 ft 238 kts 55°
2026-05-04 21:00 47.95213 16.45148 9203 ft 238 kts 55°
2026-05-04 21:01 47.96130 16.47214 9252 ft 238 kts 55°
2026-05-04 21:01 47.97036 16.49262 9162 ft 238 kts 55°
2026-05-04 21:01 47.97951 16.51328 9049 ft 236 kts 55°
2026-05-04 21:01 47.98844 16.53352 8664 ft 233 kts 55°
2026-05-04 21:02 47.99719 16.55334 8371 ft 221 kts 55°
2026-05-04 21:02 48.00540 16.57202 8079 ft 212 kts 55°
2026-05-04 21:02 48.01406 16.58968 7557 ft 212 kts 47°
2026-05-04 21:02 48.02522 16.60532 6616 ft 229 kts 34°
2026-05-04 21:03 48.03889 16.61235 5683 ft 230 kts 358°
2026-05-04 21:03 48.05472 16.60254 3840 ft 258 kts 315°
2026-05-04 21:03 48.06737 16.58328 3109 ft 247 kts 313°
2026-05-04 21:03 48.07865 16.56638 2975 ft 208 kts 322°
2026-05-04 21:04 48.09054 16.56026 3380 ft 176 kts 351°
2026-05-04 21:04 48.10236 16.55731 3828 ft 172 kts 339°
2026-05-04 21:04 48.11437 16.55210 3968 ft 186 kts 342°
2026-05-04 21:04 48.12561 16.54346 4049 ft 184 kts 297°
2026-05-04 21:05 48.12564 16.52546 4208 ft 183 kts 239°
2026-05-04 21:05 48.11592 16.51288 4099 ft 195 kts 199°
2026-05-04 21:05 48.10304 16.51662 3525 ft 196 kts 146°
2026-05-04 21:05 48.09273 16.52940 3163 ft 194 kts 140°
2026-05-04 21:06 48.08308 16.54276 3450 ft 186 kts 139°
2026-05-04 21:06 48.07313 16.55598 3434 ft 196 kts 143°
2026-05-04 21:06 48.06296 16.56920 3090 ft 194 kts 132°
2026-05-04 21:06 48.05426 16.58400 3162 ft 196 kts 127°
2026-05-04 21:07 48.05169 16.60305 3586 ft 188 kts 79°
2026-05-04 21:07 48.05421 16.62265 3939 ft 191 kts 73°
2026-05-04 21:07 48.05694 16.63480 4377 ft 181 kts 70°
2026-05-04 21:07 48.05864 16.65362 4712 ft 190 kts 90°
2026-05-04 21:08 48.06073 16.67269 5053 ft 185 kts 44°
2026-05-04 21:08 48.07179 16.67710 4949 ft 183 kts 320°
2026-05-04 21:08 48.07926 16.66081 3444 ft 212 kts 291°
2026-05-04 21:08 48.08731 16.64106 2181 ft 225 kts 297°
2026-05-04 21:09 48.09336 16.62046 1683 ft 202 kts 295°
2026-05-04 21:09 48.09992 16.60264 1150 ft 191 kts 299°
2026-05-04 21:09 48.10555 16.58623 887 ft 168 kts 294°
2026-05-04 21:09 48.11044 16.57128 636 ft 152 kts 295°
2026-05-04 21:10 48.11394 16.56046 624 ft 56 kts 297°
2026-05-04 21:10 48.11452 16.55875 626 ft 0 kts 297°
2026-05-04 21:10 48.11449 16.55882 619 ft 0 kts 297°
2026-05-04 21:10 48.11457 16.55859 621 ft 8 kts 297°
2026-05-04 21:11 48.11501 16.55734 621 ft 19 kts 295°
2026-05-04 21:11 48.11578 16.55507 624 ft 27 kts 299°
2026-05-04 21:11 48.11705 16.55281 619 ft 22 kts 316°
2026-05-04 21:11 48.11774 16.55183 618 ft 1 kts 319°